Theta_e
303 296 293 293 296 298 300 302 304 304 304 303 302 300 299 300 301 299 299 297 297 297 297 298 297 298 299 300 301 302 303 302 301 300 301 303 303 304 304 305 307 311 314 320 323 324 326 327 328 329 330 329 329 330 330 330 330 330 330 330 329 331 332 330 331 330 329 328 328 329 329 328 329 329 330 329 330 330 330 331 332 333 332 332 330 330
302 295 294 298 300 301 302 303 304 301 302 301 299 298 296 298 299 301 300 298 298 296 299 301 298 299 299 301 302 302 301 300 300 300 300 301 303 304 304 305 307 308 313 316 316 319 322 324 327 328 328 326 327 328 329 328 329 330 331 330 329 330 330 330 330 331 330 330 330 329 328 329 330 330 328 328 330 330 331 331 331 332 332 332 331 329
294 293 298 300 303 303 303 303 303 301 300 300 299 298 298 298 300 299 297 297 297 296 296 300 297 299 301 303 304 304 302 303 303 303 302 302 302 303 304 304 305 307 309 310 311 315 320 323 325 326 327 327 328 328 328 329 329 330 330 330 330 330 330 330 330 330 331 331 332 332 331 331 331 333 332 331 331 331 331 331 331 331 332 332 331 331
289 295 301 303 302 300 299 300 300 299 300 299 298 297 296 300 297 297 300 298 298 297 297 297 295 297 300 302 301 303 303 303 304 304 304 304 303 304 304 305 305 305 306 307 309 310 315 319 322 324 325 326 327 327 328 328 329 329 328 329 329 330 330 330 330 328 332 332 333 333 333 334 332 332 333 333 332 332 331 330 332 333 333 333 332 333
294 298 305 302 301 300 297 298 298 297 295 299 300 299 299 295 298 300 296 296 297 298 296 296 296 297 300 299 301 304 306 304 303 303 303 303 304 305 307 308 306 305 305 306 307 309 310 314 318 321 323 326 326 326 327 328 328 328 328 329 329 330 331 331 330 330 331 332 332 333 334 334 334 334 332 331 330 331 330 330 331 332 334 334 333 333
297 302 304 301 300 300 299 297 298 299 296 297 299 300 300 299 297 296 297 297 297 298 296 297 292 295 302 302 302 305 306 303 304 302 302 302 302 303 302 303 306 307 307 306 307 307 309 311 315 319 322 324 325 325 327 328 329 329 329 330 330 331 331 331 332 331 331 330 330 329 328 326 327 326 327 326 326 328 328 328 332 333 333 334 334 334
299 303 303 300 300 299 299 298 299 300 297 295 296 301 300 299 299 297 295 296 293 292 295 294 291 290 299 299 301 302 303 303 305 303 303 304 302 302 301 302 303 304 305 306 306 308 307 309 312 315 319 322 323 325 327 328 329 329 330 330 330 330 331 332 332 332 329 330 330 330 329 328 327 326 327 330 331 330 331 332 331 332 333 333 333 333
298 300 301 301 300 299 298 296 298 299 297 295 301 300 300 299 298 298 297 297 296 295 296 293 295 289 289 295 301 302 301 302 303 304 304 304 304 303 303 303 303 304 305 306 306 306 307 307 309 310 315 319 321 323 326 327 328 328 329 330 330 330 330 331 332 331 330 329 330 329 329 328 328 328 328 330 330 331 331 332 331 332 331 332 332 332
299 297 298 297 299 299 298 300 300 301 298 298 300 302 299 299 299 298 297 295 293 290 289 294 294 289 290 295 300 300 297 299 300 301 303 304 304 305 305 305 304 305 305 306 307 307 306 306 307 309 312 316 320 323 324 326 327 328 329 329 330 330 330 330 331 330 330 329 329 329 329 328 328 329 329 330 331 331 332 332 332 331 331 331 331 332
300 300 301 301 299 296 302 302 300 300 297 297 301 302 301 300 298 297 295 293 290 288 286 291 293 289 291 296 296 298 298 299 300 303 304 304 305 305 305 306 306 305 306 306 306 308 308 308 308 309 310 313 316 320 323 325 326 328 328 328 328 328 329 329 329 329 329 330 328 328 329 328 328 328 329 330 330 330 330 329 330 330 330 330 330 331
297 302 305 302 299 302 303 302 302 301 301 300 300 297 295 294 292 291 292 291 289 284 287 292 293 293 287 297 298 296 297 299 302 303 304 306 307 306 305 305 306 305 304 306 306 306 307 309 309 310 307 308 311 317 319 321 324 326 327 327 327 327 328 329 328 329 328 329 329 327 328 328 327 328 328 328 328 328 329 328 328 329 329 330 329 330
298 300 300 301 298 301 303 298 302 303 299 299 296 293 292 289 292 289 288 290 285 285 289 293 292 293 286 293 298 301 297 298 299 300 302 304 305 305 305 304 305 305 304 304 304 305 306 306 307 306 305 306 308 311 313 317 320 322 324 326 326 326 327 328 328 328 327 327 327 328 328 328 328 328 327 326 326 327 327 327 327 329 329 329 329 329
294 297 298 297 299 302 298 296 295 297 297 296 295 294 289 284 285 282 285 281 282 284 287 292 293 289 289 296 298 298 300 302 300 299 300 302 304 306 306 305 304 305 305 304 305 306 306 306 305 305 304 305 306 309 311 314 317 320 322 323 324 325 326 327 328 327 327 327 327 327 327 328 329 328 327 327 326 327 326 327 326 327 327 328 327 328
289 295 293 295 298 302 301 293 289 288 292 293 291 291 288 282 281 280 282 284 284 286 287 289 291 287 294 297 301 300 302 304 305 304 303 302 303 304 306 308 305 305 303 303 304 306 306 306 307 306 305 305 306 306 309 313 316 318 320 322 322 323 325 326 327 327 327 327 327 327 327 327 328 327 327 327 327 327 327 327 326 327 327 327 327 327
283 283 290 293 291 300 300 299 295 291 292 292 297 295 290 288 284 281 283 281 284 286 285 290 287 286 287 294 296 297 299 300 300 299 301 302 303 303 303 301 299 299 300 301 302 303 304 305 306 307 306 306 306 306 307 310 313 316 317 319 321 322 324 325 325 326 326 326 327 327 328 327 327 327 327 327 328 328 327 327 327 327 327 327 328 328
288 289 293 298 297 300 299 302 300 296 294 295 297 298 293 290 296 288 288 288 284 284 282 283 286 293 294 297 298 300 300 299 299 299 298 298 300 301 301 301 300 300 301 302 302 302 302 303 304 305 306 306 306 306 306 306 310 313 315 317 319 320 322 324 324 325 326 326 327 327 327 327 326 326 327 327 327 328 328 328 327 327 327 327 328 329
291 288 292 295 297 298 301 301 299 300 287 293 294 288 292 296 294 287 285 284 285 285 284 288 287 291 297 298 300 300 300 300 302 301 300 299 299 301 301 303 303 303 303 303 304 304 305 305 304 304 303 304 304 305 305 305 307 311 314 316 317 319 321 322 323 324 325 325 326 326 326 326 326 326 326 326 327 328 329 329 328 327 327 328 328 328
290 286 289 293 290 297 298 301 300 302 300 294 288 292 295 298 296 290 286 283 284 283 286 287 285 288 289 288 296 297 297 299 301 301 302 301 300 298 300 302 303 304 305 304 304 304 305 305 305 304 304 304 304 303 304 304 305 307 311 314 315 316 317 319 321 322 324 324 324 325 325 325 326 326 326 326 326 327 328 328 328 328 327 327 328 329
296 284 287 289 294 295 296 298 296 299 300 296 292 300 292 285 285 289 288 279 280 280 283 285 286 286 290 292 296 295 295 297 298 300 300 301 302 300 300 301 302 303 303 303 302 302 303 303 304 306 305 305 304 303 304 304 304 306 308 311 313 315 317 318 320 322 323 323 324 324 324 324 325 325 326 326 326 327 327 326 327 326 327 327 327 326
298 286 285 290 292 292 294 295 286 290 296 295 299 295 299 295 290 286 287 287 288 283 282 283 283 285 292 293 296 297 298 299 300 300 301 302 303 302 302 303 303 304 304 304 303 303 303 303 303 304 305 306 305 304 303 303 304 303 305 308 310 314 316 317 319 320 320 322 323 323 324 324 325 325 325 325 325 325 325 325 326 326 325 325 325 325
293 296 283 287 291 293 286 291 289 292 287 288 291 291 293 291 294 294 292 287 287 285 284 284 284 288 294 297 296 298 300 301 302 302 302 302 304 303 302 303 304 303 304 304 304 303 302 301 301 302 303 304 305 305 304 304 303 303 304 305 308 309 312 314 317 319 320 321 322 322 322 323 323 324 324 324 324 324 324 324 324 324 324 324 324 324
289 291 285 285 285 286 288 294 294 296 294 291 292 290 292 289 286 285 283 290 285 287 282 283 282 290 296 294 297 299 300 301 302 302 301 302 302 300 303 303 302 303 303 301 301 300 300 299 300 300 300 301 301 302 302 303 303 303 303 304 307 309 311 312 315 317 319 320 321 320 321 322 322 323 323 323 323 323 323 323 323 323 323 323 323 323
297 294 287 284 285 287 291 291 288 292 297 295 295 293 296 294 292 288 283 285 286 285 285 284 282 287 299 296 297 299 300 300 300 299 299 300 301 301 302 304 303 300 299 300 300 301 300 300 299 299 298 300 300 303 303 303 303 304 304 304 305 307 309 311 313 315 316 317 318 319 320 320 321 321 322 322 322 322 322 323 323 322 321 320 319 318
293 288 285 285 287 289 290 289 290 292 295 292 293 294 295 291 292 291 289 288 287 285 285 286 282 289 295 296 297 295 296 296 296 295 297 298 298 298 299 301 302 301 301 300 301 300 300 299 296 296 298 298 298 300 302 303 304 304 304 304 304 304 306 309 311 312 314 315 316 317 318 318 319 319 320 320 320 320 320 320 320 318 317 317 315 313
291 288 287 281 280 283 285 288 289 290 291 290 290 292 294 296 295 289 289 289 287 287 287 286 281 288 297 294 294 294 294 294 296 296 295 296 298 299 299 300 300 299 299 300 301 302 301 300 299 300 299 299 299 301 303 303 303 303 304 304 304 304 305 306 308 309 311 313 313 314 315 316 316 316 316 317 317 317 317 316 315 313 314 314 313 313
293 290 288 280 276 274 274 276 279 282 285 290 291 291 293 293 292 288 285 287 284 288 287 286 287 293 293 294 294 294 293 294 296 297 295 295 297 298 298 300 300 299 299 299 300 302 306 305 303 300 298 298 298 299 301 301 302 302 304 304 305 306 305 305 305 306 308 309 310 311 311 312 313 313 313 314 314 314 314 313 312 311 311 312 313 311
290 291 292 288 286 283 284 287 290 292 289 285 288 290 291 293 294 292 290 287 284 288 286 289 291 291 291 292 293 295 291 295 298 297 294 297 297 297 297 298 299 299 299 299 299 301 299 299 303 305 303 301 299 298 298 299 299 299 301 302 303 304 304 303 303 304 305 307 307 308 308 308 309 310 311 311 311 310 310 309 309 309 309 309 310 309
287 288 291 292 291 292 292 291 293 292 288 289 288 288 291 290 291 289 287 285 291 287 283 290 293 291 292 293 294 296 296 296 298 297 294 295 299 301 299 296 294 295 297 297 297 298 301 304 305 304 304 301 300 299 297 297 298 299 299 301 300 300 300 300 300 302 304 304 305 306 306 307 308 308 308 309 309 309 309 308 307 308 308 307 307 307
290 287 291 292 291 293 293 291 293 292 291 291 290 290 289 290 290 287 288 291 292 287 286 292 294 292 294 294 295 297 298 298 299 299 297 296 296 297 296 298 299 299 299 299 302 300 302 304 306 307 305 302 300 300 300 298 296 296 297 299 300 299 299 300 301 302 303 303 304 305 306 306 306 306 306 306 306 306 306 306 306 305 305 304 305 305
292 289 292 292 290 288 289 292 293 292 291 291 291 290 291 290 290 291 291 292 293 291 293 294 294 294 296 296 297 298 299 299 296 294 292 292 294 298 297 298 300 300 299 301 303 303 302 303 304 303 301 299 300 302 301 301 301 300 299 299 299 299 300 299 300 302 302 303 304 305 305 305 305 305 305 305 305 305 305 304 304 303 302 302 302 302
292 287 293 291 288 286 286 289 293 292 291 288 290 291 291 291 291 292 292 293 293 292 293 294 292 291 297 299 299 300 300 296 295 295 297 297 297 297 298 299 300 301 302 301 301 302 303 302 301 299 298 300 300 302 303 305 305 303 302 301 299 299 299 300 300 301 302 303 304 304 304 304 304 304 303 304 304 303 302 302 300 299 298 297 297 297
291 289 292 289 286 284 284 286 289 290 290 288 288 289 290 289 288 290 289 292 291 290 292 292 290 291 297 298 298 299 298 297 297 299 300 301 299 298 299 300 300 301 302 302 302 301 301 301 301 301 301 302 303 302 302 303 303 302 302 302 300 299 298 299 300 301 301 303 302 302 303 303 302 301 301 300 301 299 297 297 295 295 295 295 294 294
291 289 287 287 285 285 285 287 286 287 286 284 285 288 290 290 291 292 293 293 294 294 290 287 289 296 297 298 297 296 295 296 298 298 299 300 302 301 299 299 301 301 301 302 301 302 302 302 302 302 300 302 301 301 303 303 301 301 303 302 302 298 296 296 299 300 301 300 300 300 302 300 298 298 298 297 297 296 295 295 295 294 294 294 294 293
291 289 288 290 285 285 283 285 287 284 278 279 291 294 293 290 291 289 290 291 294 295 293 295 296 297 297 297 297 297 296 296 298 300 301 301 301 300 298 298 299 300 300 299 301 300 302 302 299 299 301 302 303 301 301 300 301 303 302 301 299 297 296 297 297 299 298 297 298 298 297 297 297 296 296 295 294 294 294 294 294 293 293 293 292 293
289 289 288 289 286 280 282 285 281 277 280 292 296 296 295 294 294 292 293 294 294 295 295 295 296 296 297 297 298 299 300 300 300 299 299 299 301 302 302 299 298 298 299 300 300 299 299 300 299 299 299 298 298 298 297 296 298 298 297 297 297 296 296 296 297 297 297 296 296 296 296 296 296 295 294 293 293 292 293 293 292 292 292 292 292 293
288 288 288 284 284 283 281 282 276 277 289 290 292 294 296 295 295 294 292 294 295 295 295 294 295 297 297 297 298 300 300 300 301 300 300 300 300 301 301 302 302 299 299 300 300 301 301 299 298 298 299 299 298 298 298 298 297 297 296 296 297 296 295 295 296 296 295 295 295 296 296 295 295 295 294 293 292 292 292 293 292 291 291 291 292 293
290 290 289 283 285 279 280 282 282 288 286 288 289 290 292 289 290 290 286 290 295 296 296 295 296 297 297 296 297 297 296 295 295 298 300 300 300 300 301 301 303 302 302 302 301 302 302 300 299 301 299 296 297 298 297 297 296 296 295 295 296 294 293 293 294 295 295 294 295 295 294 295 295 294 293 293 292 291 291 291 290 291 291 291 291 291
291 287 288 285 281 285 281 280 282 282 280 286 292 295 297 297 297 296 292 290 298 297 297 296 295 296 297 296 295 294 297 294 293 296 300 301 301 301 300 300 301 302 301 301 301 300 298 298 298 295 297 297 295 295 295 295 295 296 295 295 294 292 292 293 294 295 295 295 294 294 294 294 294 294 293 291 291 291 291 292 292 290 290 292 290 290
287 289 288 287 283 283 282 280 280 279 283 292 293 294 297 298 298 296 290 286 295 298 298 297 296 296 297 295 294 295 294 290 291 296 301 302 301 301 301 301 299 300 301 301 300 298 297 297 295 294 293 295 295 293 292 293 294 295 295 295 294 294 294 293 294 294 293 294 295 294 294 294 294 293 292 291 291 291 290 290 291 291 289 292 292 291
286 286 285 282 278 283 283 281 280 284 286 290 291 292 294 297 298 292 281 282 294 298 299 298 296 297 297 297 295 295 293 290 292 297 302 303 302 302 301 302 300 299 298 296 296 297 297 295 292 293 294 294 295 292 291 292 294 293 295 294 294 294 294 294 294 294 294 294 293 294 293 293 291 291 290 290 290 290 290 291 290 289 289 290 291 291
284 283 285 282 282 283 284 283 285 286 292 289 291 293 296 299 295 285 280 289 297 299 299 299 298 298 298 297 295 292 296 298 299 301 303 303 302 301 299 298 300 299 298 295 295 291 294 294 296 296 296 296 293 290 291 292 293 293 294 293 293 293 295 295 295 295 294 294 293 292 292 293 291 290 290 290 290 290 289 290 290 289 289 289 290 289
284 284 281 286 283 282 284 283 284 288 294 291 292 296 298 294 285 284 294 298 297 297 299 299 299 299 299 298 295 296 298 300 300 301 298 299 300 300 298 296 295 294 294 293 292 292 295 294 294 293 292 289 288 289 290 291 292 293 292 291 293 294 295 294 294 294 291 290 289 290 289 289 289 289 289 288 289 289 288 289 289 288 288 290 289 287
284 283 281 282 285 282 282 282 280 279 289 293 292 294 297 290 291 295 293 291 294 297 298 298 299 299 299 297 297 297 299 299 299 299 296 294 296 296 295 293 294 294 292 291 290 290 293 293 292 292 291 286 286 288 289 290 290 289 289 290 292 293 293 292 292 291 290 288 287 288 288 288 288 288 288 288 288 288 288 288 287 287 288 288 287 287
291 285 284 285 288 281 282 280 282 289 292 294 294 290 293 297 295 296 298 292 290 294 295 297 297 299 299 299 297 297 298 299 298 297 296 294 292 291 290 291 292 292 292 292 292 290 289 293 293 290 286 284 285 287 288 289 288 288 288 290 291 289 289 288 289 288 286 286 286 286 286 287 287 288 288 288 288 288 287 287 287 287 288 288 288 288
290 288 289 285 289 286 285 288 292 289 293 295 297 299 299 300 295 292 297 296 292 291 292 295 296 296 298 299 298 298 297 297 297 297 296 297 296 293 292 292 292 292 292 291 290 288 288 292 289 287 284 284 284 285 286 287 288 287 288 288 286 286 286 286 285 285 285 285 285 285 285 286 287 287 287 288 288 288 288 287 287 288 288 288 289 289
294 294 293 292 289 293 295 292 291 287 289 294 297 297 299 300 296 290 294 295 294 294 292 296 295 295 295 297 297 295 296 297 296 296 296 296 295 294 294 292 290 289 289 288 286 286 288 288 285 285 284 283 283 283 283 284 287 287 289 285 284 286 285 284 284 284 284 284 284 284 284 285 285 286 287 287 289 289 289 288 287 289 288 288 289 288
286 291 290 290 291 289 285 294 292 289 292 292 295 294 295 298 298 293 291 294 295 293 293 293 295 295 295 294 296 296 295 296 295 296 295 294 293 293 293 292 291 289 288 287 288 285 285 285 285 285 284 283 280 281 281 282 283 284 284 283 283 284 284 284 284 283 282 283 282 282 284 285 286 286 285 287 288 288 288 288 288 288 288 288 288 287
287 293 291 290 289 288 289 293 294 291 292 293 294 293 293 295 293 290 292 291 291 291 292 291 292 292 292 292 295 295 295 295 293 293 292 292 293 292 293 292 291 288 288 288 285 285 286 287 287 286 285 284 282 281 281 282 281 279 282 282 281 283 283 283 283 283 282 281 281 282 283 285 280 283 286 286 287 287 287 288 288 288 288 288 288 288
291 291 287 290 288 291 292 288 290 288 290 290 292 295 296 296 293 291 289 288 288 289 289 288 291 292 293 294 294 295 293 292 292 293 292 292 292 292 291 292 290 289 287 285 283 284 287 287 287 286 286 285 282 281 280 278 276 277 279 279 280 282 283 282 280 281 280 280 281 281 281 283 283 285 285 285 285 287 287 287 288 288 288 288 290 289
289 287 290 290 287 287 288 291 289 288 288 291 291 292 292 293 293 293 289 287 287 289 289 288 287 288 291 291 293 293 292 292 291 291 291 292 291 291 291 290 289 288 286 285 283 284 285 285 286 285 284 283 279 280 278 277 275 275 277 279 279 282 282 280 279 279 278 279 281 280 281 282 282 283 284 284 285 284 284 281 283 285 287 288 286 286
290 290 290 288 288 288 293 296 294 296 296 295 295 293 292 291 291 291 289 288 287 288 288 289 288 288 289 289 290 291 292 292 291 291 291 292 290 290 291 289 287 286 285 283 283 282 283 283 282 283 282 280 278 278 277 276 275 275 276 277 278 280 280 280 281 280 278 278 280 280 281 282 281 282 283 283 284 284 284 285 284 284 283 284 285 285
Wind_Speed
8 10 11 13 12 13 15 15 10 9 17 10 7 4 7 8 5 2 3 4 2 5 12 16 17 18 18 17 15 12 12 10 10 13 12 13 10 10 10 10 11 12 14 7 7 9 12 14 14 13 13 13 15 16 17 18 19 20 18 17 19 16 16 14 13 13 11 11 11 12 14 13 12 11 10 10 10 10 10 11 11 12 11 9 10 9
8 9 14 13 13 16 17 14 8 3 4 8 8 8 6 6 7 4 4 5 1 5 9 8 11 16 18 19 18 12 10 16 16 15 14 15 15 11 12 12 12 12 7 3 7 10 12 12 14 13 12 14 16 17 18 19 21 21 21 20 18 15 16 18 17 12 12 12 12 11 12 11 11 11 11 11 10 10 9 11 11 11 12 10 10 9
13 19 11 13 11 14 12 13 10 6 7 7 8 7 6 7 3 4 2 2 2 3 11 13 15 17 18 18 18 16 14 15 16 16 15 13 15 13 10 13 13 9 10 9 11 10 10 13 13 13 13 15 18 17 18 20 20 20 19 19 18 17 17 17 18 15 14 13 13 13 11 11 11 11 10 10 11 10 11 11 11 11 12 12 10 10
12 15 13 14 12 12 10 11 9 8 5 7 7 7 10 5 7 6 3 4 4 5 5 7 14 14 16 17 20 21 18 17 16 17 17 13 15 17 16 12 11 13 12 12 12 13 13 12 12 13 14 15 15 15 16 17 18 16 17 18 18 18 18 15 16 15 15 14 14 14 13 13 13 12 10 11 11 11 12 13 11 12 12 12 10 12
6 7 15 16 16 16 15 14 13 11 10 9 10 9 7 7 8 6 2 1 1 6 3 11 15 17 16 17 15 19 20 19 17 15 16 14 13 14 11 10 12 15 13 12 12 12 12 13 15 17 17 14 14 16 17 17 17 14 19 20 20 19 18 17 16 15 15 12 11 10 10 12 12 11 11 10 11 12 12 11 13 14 14 14 12 11
7 14 17 18 18 18 16 15 16 12 10 8 11 11 7 6 6 2 2 4 5 7 5 5 8 11 6 16 15 10 7 11 14 16 18 16 15 14 16 17 13 12 12 14 14 13 14 15 14 13 14 15 16 17 17 16 17 17 16 18 19 18 18 18 20 18 15 14 15 13 14 15 14 14 14 15 15 13 14 14 12 12 15 15 14 14
8 14 20 21 20 18 17 13 17 14 10 9 9 12 6 8 8 7 5 3 6 11 2 2 8 11 1 6 5 6 8 10 9 14 17 19 18 16 15 13 13 14 13 12 13 11 10 12 12 14 14 16 17 17 16 15 16 18 16 17 18 17 16 16 17 19 15 17 15 17 18 15 17 17 15 13 11 12 13 10 13 12 11 15 15 14
8 17 19 19 19 18 15 13 14 17 8 8 11 15 11 11 11 10 8 9 9 5 4 6 6 13 15 12 12 11 16 18 17 16 17 17 18 18 16 15 14 14 15 12 14 16 14 14 15 16 18 17 18 17 15 15 16 18 19 17 18 15 15 14 15 18 18 17 17 17 17 15 17 17 17 15 14 14 11 10 12 11 12 13 16 13
17 15 19 19 16 14 17 16 16 17 11 2 11 13 13 12 11 8 7 5 2 4 9 7 6 7 11 0 10 10 11 12 16 18 18 15 16 18 20 19 17 18 17 16 14 16 15 16 15 16 15 17 17 11 14 16 16 16 16 17 16 17 16 15 16 17 20 18 18 19 17 16 15 16 16 11 10 11 12 16 13 11 11 13 14 14
5 18 20 19 15 14 13 12 19 19 14 2 9 9 6 5 3 6 5 4 2 4 11 7 8 7 20 7 7 11 12 15 17 17 15 17 18 17 16 18 16 15 14 15 17 15 14 14 14 15 14 11 12 13 14 14 12 13 13 15 17 18 16 16 19 20 22 21 16 17 18 20 18 14 14 13 15 15 15 17 17 11 11 10 11 13
4 2 7 12 15 14 13 11 13 17 4 11 13 12 8 5 3 3 2 2 2 10 11 10 11 5 13 3 10 9 8 12 10 8 9 11 13 14 15 17 14 13 13 12 13 13 14 12 13 7 11 12 11 8 11 12 14 14 14 16 18 19 15 16 20 21 23 19 20 20 21 23 22 20 16 14 17 16 16 16 16 12 13 12 11 12
9 9 6 4 3 6 14 9 5 7 13 16 8 11 10 4 1 2 1 3 6 8 4 12 11 13 9 4 4 5 5 2 7 8 9 10 11 12 12 14 16 15 13 12 13 13 13 12 7 6 11 13 13 11 13 13 14 14 15 16 19 19 19 17 17 19 22 20 21 21 22 20 20 18 15 18 19 17 18 18 16 13 11 11 11 12
11 14 5 4 4 16 13 13 4 9 11 8 12 15 10 4 4 4 4 6 10 7 2 5 11 9 21 15 2 3 6 7 8 10 10 10 11 13 12 12 10 9 10 12 12 11 10 11 10 11 12 12 12 12 16 16 15 14 14 17 19 19 20 18 18 19 21 21 21 22 22 19 16 17 18 19 19 18 18 17 16 15 13 10 12 12
2 4 3 6 5 9 18 14 8 6 10 10 13 13 9 6 6 6 7 2 4 2 2 5 1 10 15 12 14 18 18 21 15 10 12 14 15 13 11 8 4 5 8 8 7 7 9 9 9 11 12 12 11 13 13 13 13 12 13 16 18 20 18 17 17 18 20 21 21 21 20 18 16 18 18 17 16 16 16 16 18 17 15 13 14 13
8 6 11 15 9 11 15 10 15 8 13 6 5 10 6 5 6 9 8 10 7 3 4 5 4 8 3 3 5 3 7 7 7 8 9 11 11 10 7 4 4 5 5 5 6 8 10 10 11 10 11 11 11 12 12 10 12 12 13 14 17 18 17 17 18 17 19 19 20 19 18 17 17 17 16 17 14 15 16 16 15 16 15 15 15 15
13 2 3 11 3 17 16 11 16 17 10 9 7 2 10 13 5 6 1 3 2 3 3 5 9 4 6 7 10 8 9 12 10 11 9 11 11 8 8 10 9 7 7 7 8 9 11 11 9 8 7 8 8 10 8 11 11 13 15 16 18 19 17 17 17 17 19 19 16 18 18 19 17 13 13 12 12 12 14 15 14 16 16 15 14 14
10 12 7 11 3 14 16 13 13 21 12 12 11 12 6 5 5 3 1 3 3 1 10 5 8 11 9 16 20 19 16 14 12 12 10 9 9 8 10 11 9 7 7 7 8 9 11 8 8 8 9 8 8 8 10 12 11 13 12 12 14 14 12 14 16 17 16 16 16 17 19 17 17 19 16 16 17 14 14 14 13 15 14 13 13 13
15 5 5 10 7 8 2 11 12 11 8 8 10 9 4 2 4 2 8 3 5 8 6 8 14 10 2 12 5 4 9 12 15 17 12 9 6 8 11 9 9 9 8 9 9 10 10 8 8 8 8 9 9 10 10 12 12 11 12 13 15 14 15 15 13 14 13 14 16 15 15 17 19 15 17 17 16 14 12 11 11 10 9 10 9 8
10 6 4 3 9 8 3 8 9 4 6 11 13 9 9 6 9 9 3 7 7 8 6 6 12 13 12 15 2 3 8 7 7 9 11 14 11 10 10 9 9 7 6 7 9 8 8 8 8 7 8 8 8 9 9 9 9 9 10 12 13 14 14 13 11 11 10 14 10 10 16 18 17 16 15 16 15 13 13 13 9 7 10 11 9 8
9 6 5 1 7 6 5 11 12 12 9 4 2 13 9 2 9 9 8 1 3 7 2 5 5 10 11 14 10 15 10 10 12 10 10 12 14 8 6 7 5 5 6 6 7 7 7 7 7 8 8 8 9 8 7 8 7 10 10 10 11 9 8 9 11 11 12 11 13 14 13 15 15 15 15 12 12 12 8 8 10 11 8 10 7 8
7 2 7 6 1 10 8 9 13 17 14 8 10 13 9 4 4 1 0 5 5 6 8 8 8 9 5 8 8 14 16 19 18 10 9 11 8 5 7 6 5 6 5 5 5 4 5 5 5 5 5 5 3 4 5 7 8 8 8 10 11 11 11 11 11 11 11 10 11 14 16 15 14 15 15 15 13 11 15 14 11 11 11 11 10 8
4 9 10 11 8 10 9 11 5 12 13 13 14 16 18 14 9 12 13 5 2 6 5 6 12 8 2 4 9 11 12 11 9 9 9 9 4 4 4 5 6 5 6 6 6 5 5 5 4 3 2 2 3 4 5 5 5 7 8 7 8 10 10 11 10 9 9 8 9 14 15 15 13 14 15 16 17 15 15 15 12 11 12 13 13 11
4 4 11 11 12 10 8 2 2 2 9 8 7 11 12 10 7 5 10 9 2 3 3 1 5 9 4 9 10 10 8 6 2 1 7 6 6 5 4 5 4 5 6 6 6 5 4 4 3 2 1 2 4 4 4 4 6 6 7 7 8 9 10 10 9 9 9 10 9 12 13 14 14 14 16 16 13 13 13 12 11 10 11 10 7 7
7 5 9 5 6 5 5 0 1 2 6 12 11 8 11 15 17 10 2 2 7 2 4 4 5 11 1 1 4 3 3 3 0 4 7 6 6 5 5 6 7 4 4 5 4 4 4 3 2 2 2 2 4 5 5 5 5 5 5 6 6 8 7 6 6 7 8 8 9 9 11 13 11 10 11 12 11 11 10 9 8 6 7 7 5 7
8 6 13 9 6 3 2 2 4 1 5 10 12 13 11 9 5 2 3 1 5 10 9 7 10 14 4 2 1 3 4 7 7 5 6 7 6 5 7 6 4 4 4 4 4 4 2 3 3 2 3 3 4 4 4 4 4 4 5 5 6 5 6 6 6 7 7 8 8 11 12 12 11 11 10 10 9 9 7 7 6 6 8 7 8 8
9 12 16 15 15 14 13 15 16 16 18 10 10 8 13 14 14 6 7 4 9 8 12 10 14 9 4 1 4 6 2 6 8 5 4 6 8 7 5 6 6 3 4 4 4 4 3 1 1 2 3 3 4 3 3 2 2 2 3 4 4 5 5 5 4 5 6 6 7 10 11 11 10 11 10 9 9 8 7 6 6 6 6 8 9 8
5 10 14 13 20 17 19 23 20 12 10 6 12 18 21 18 15 11 2 7 13 9 10 16 22 2 4 5 8 7 4 8 7 4 3 4 6 6 6 6 4 4 4 5 4 3 4 4 5 4 3 3 3 3 3 3 4 4 4 5 5 5 5 5 6 6 6 6 7 9 9 9 9 7 7 7 7 5 5 6 6 7 8 7 8 8
1 11 19 17 20 15 14 3 11 21 24 27 27 23 18 18 18 18 17 20 21 4 10 19 24 20 11 8 9 9 7 7 6 3 4 3 6 3 2 3 6 6 5 3 4 5 6 4 2 2 3 4 4 4 5 5 5 6 7 6 6 6 6 6 7 8 8 8 8 8 9 8 7 6 6 5 5 6 5 5 5 6 5 6 7 7
9 13 16 15 18 14 7 13 17 16 16 18 20 18 22 21 20 20 23 25 10 14 20 20 14 15 18 10 10 12 11 10 10 5 4 4 3 5 4 4 5 3 3 4 5 4 4 5 4 3 3 3 4 5 5 5 6 6 6 6 6 7 8 7 8 8 9 8 9 9 8 7 6 5 5 5 4 5 5 5 5 5 5 5 6 5
4 9 11 14 15 6 2 13 18 20 15 12 16 21 21 20 23 24 25 20 18 18 27 1 8 20 15 15 12 11 6 5 1 0 1 3 5 4 3 4 6 4 2 4 4 4 4 5 3 3 2 3 5 6 5 5 6 6 7 6 6 7 7 7 8 8 8 9 9 7 7 6 6 5 5 6 6 6 6 5 5 5 5 5 5 5
7 10 13 12 11 9 4 5 12 17 17 19 18 20 20 20 21 24 23 20 20 24 23 17 14 13 12 12 12 8 4 2 4 9 9 6 5 6 5 4 4 7 6 4 4 6 5 4 3 2 3 5 6 8 8 7 6 5 5 6 7 7 7 7 7 8 8 8 6 6 5 5 6 5 6 6 6 5 5 6 5 5 4 4 5 5
8 5 9 8 12 9 5 9 14 15 15 16 16 17 19 22 21 23 20 23 21 23 21 15 16 19 17 12 5 9 10 8 12 11 9 7 7 6 10 8 5 7 7 6 3 3 4 5 5 4 6 7 9 8 6 6 6 6 7 7 8 8 7 7 8 8 8 7 6 6 6 6 5 5 5 4 5 5 5 4 5 5 5 5 5 4
13 8 10 11 12 12 10 8 6 6 7 8 15 21 28 30 29 27 25 21 19 23 21 15 24 20 10 16 13 11 8 11 12 11 11 11 11 9 9 9 8 7 9 6 6 5 6 7 4 6 7 8 8 7 8 5 6 7 7 8 7 8 8 8 8 8 8 6 5 6 6 5 6 6 5 5 4 4 4 5 5 5 5 6 5 4
12 11 9 10 13 9 10 10 10 10 13 15 22 33 32 31 30 22 20 23 27 23 19 24 19 9 10 11 17 13 13 13 12 11 10 9 8 9 8 7 8 7 5 5 7 9 7 3 4 6 7 9 9 6 3 4 5 2 2 4 6 9 9 9 8 8 6 5 5 5 5 5 5 5 4 4 4 4 5 5 5 4 3 3 4 4
18 15 11 7 9 7 9 11 11 17 17 21 15 14 18 21 24 26 25 25 26 27 28 25 24 16 9 10 13 15 14 12 8 11 11 9 8 6 8 9 9 9 10 10 8 8 10 8 5 7 7 8 8 5 5 4 5 3 4 6 8 8 9 8 8 8 6 6 6 6 6 6 5 5 5 5 5 5 5 5 4 5 5 5 6 7
14 18 10 3 4 5 9 13 12 16 9 4 8 16 15 16 18 19 22 24 31 32 30 28 28 20 9 11 11 11 14 15 15 13 11 10 12 10 9 10 11 11 10 9 12 11 11 9 9 9 8 3 5 5 5 5 6 6 5 5 5 7 7 7 8 8 6 7 7 7 6 6 6 6 6 6 5 6 6 6 7 7 6 4 3 3
8 10 10 9 5 12 10 15 15 3 3 1 3 11 18 21 26 25 21 26 30 21 19 21 23 20 11 10 7 5 1 1 7 12 15 15 11 8 11 11 13 13 13 13 12 13 8 7 8 8 5 4 4 6 7 5 6 6 5 6 5 7 7 7 7 8 8 8 7 6 6 6 7 7 7 7 7 7 6 5 4 3 3 3 3 5
5 11 5 9 7 5 14 11 8 6 10 13 23 14 23 22 12 15 13 18 6 18 20 22 26 23 20 10 9 6 4 3 10 14 16 12 10 12 15 14 16 15 13 15 9 6 6 7 4 2 4 5 4 2 2 4 6 6 5 5 5 7 7 8 8 8 9 8 7 6 7 6 7 8 7 7 6 6 6 5 3 4 4 6 5 4
3 4 5 10 5 7 9 12 11 14 18 22 16 11 5 5 10 10 5 16 14 17 21 25 26 22 17 13 11 10 9 11 18 16 15 7 14 18 20 19 19 18 17 13 11 10 7 7 6 5 4 4 6 3 4 5 7 6 6 6 6 6 7 9 9 9 9 8 7 7 8 7 7 8 8 6 6 6 6 6 5 4 4 4 4 5
8 5 4 4 2 8 11 11 13 8 14 7 10 15 14 16 17 13 7 13 28 21 18 20 25 17 15 13 14 14 16 18 20 17 17 15 17 18 18 16 13 13 9 4 4 7 9 8 8 6 8 9 8 6 7 7 7 7 7 6 6 6 7 8 9 8 7 7 7 7 7 7 6 6 7 7 5 4 5 4 3 4 4 3 3 3
9 4 8 11 9 10 12 7 3 6 9 2 8 19 19 18 18 13 12 26 16 14 20 19 19 17 18 14 14 14 19 21 22 20 12 17 16 14 7 5 5 6 9 9 9 5 6 7 10 12 13 9 8 8 8 8 8 8 6 6 7 8 7 6 7 8 8 8 7 7 7 6 5 6 5 5 5 5 4 4 4 4 4 4 3 3
11 8 2 6 11 11 8 11 9 7 6 8 8 20 21 16 8 17 26 5 11 13 15 18 20 15 17 17 16 16 21 26 27 15 7 11 13 10 7 7 5 4 2 3 6 10 8 7 7 4 3 3 6 6 7 7 9 8 6 8 11 7 5 6 6 6 5 5 5 5 4 5 4 5 5 4 5 5 4 3 3 4 5 4 4 5
14 11 10 11 6 2 1 9 4 10 8 21 17 15 18 16 23 10 5 2 3 13 17 17 19 19 21 22 26 28 28 24 23 18 6 3 5 5 5 6 8 9 8 6 4 6 8 8 9 9 5 3 4 5 4 8 8 6 5 7 6 5 5 5 5 4 4 5 5 6 5 5 5 5 4 5 4 6 5 4 4 4 4 4 4 5
17 14 11 10 9 9 12 13 14 13 1 20 20 17 22 10 3 7 6 4 2 5 11 12 10 13 19 21 23 22 21 19 14 6 7 5 2 2 2 3 3 3 4 3 5 9 7 9 6 4 3 2 3 3 3 8 9 8 8 6 4 5 4 3 4 5 5 5 5 5 4 4 4 4 3 4 5 5 5 5 4 4 4 4 5 5
9 15 17 19 15 13 16 19 10 8 19 21 19 8 6 8 4 4 3 8 8 7 4 8 11 10 15 18 17 18 16 15 14 12 12 15 12 8 8 8 8 9 8 9 7 7 6 10 10 7 5 4 4 4 4 3 7 8 8 4 5 5 6 6 6 6 6 6 6 6 4 4 3 3 3 4 5 5 4 5 5 5 4 4 4 5
15 14 3 6 12 13 10 2 3 2 3 14 16 4 14 18 4 1 3 9 6 9 13 12 12 12 13 14 13 12 14 15 15 14 13 11 8 9 7 5 5 3 4 4 3 8 7 6 6 8 8 5 5 4 4 2 3 8 4 6 6 6 5 7 8 7 7 6 6 6 5 5 4 3 3 3 3 3 4 5 5 5 5 4 5 4
3 8 7 12 7 11 11 17 15 7 10 12 13 5 5 10 11 7 5 6 5 6 10 6 11 15 15 14 16 15 17 17 15 13 9 5 7 9 10 10 8 8 10 9 7 9 7 8 8 9 9 9 6 5 4 5 1 1 5 8 7 7 7 7 7 7 6 6 5 5 5 6 4 4 3 3 2 2 3 3 3 4 5 5 5 5
8 13 10 10 10 16 22 20 17 9 9 14 12 10 10 12 7 5 4 2 2 3 3 4 5 7 8 9 14 15 14 10 10 10 7 9 11 9 9 9 8 6 2 2 5 6 6 7 9 10 9 7 7 6 5 5 4 3 6 7 7 8 8 7 7 7 7 6 6 5 5 4 5 5 4 3 3 3 3 3 4 5 5 7 7 7
10 15 13 12 12 18 9 6 7 8 11 13 14 14 11 12 10 6 7 5 5 8 7 3 4 8 15 18 15 12 10 9 12 11 10 9 8 8 10 9 9 9 8 8 7 9 9 9 9 9 9 8 6 6 5 4 3 3 6 6 7 8 10 8 8 7 8 6 6 5 4 4 5 5 4 4 3 3 2 3 4 4 3 3 3 3
10 16 9 11 11 12 15 17 14 9 12 15 17 17 10 7 10 10 7 7 6 8 8 8 4 1 3 2 7 10 13 11 10 9 10 9 8 5 6 7 8 9 7 4 5 6 3 4 5 8 8 5 4 5 5 4 3 3 3 5 5 6 9 8 7 7 6 5 6 5 6 5 5 4 4 5 4 4 2 3 2 1 2 3 3 4
16 18 14 15 15 19 25 26 21 25 16 11 20 16 14 10 11 12 13 11 9 7 8 11 8 3 6 5 3 9 10 8 9 8 8 5 3 3 5 8 9 7 7 7 9 7 5 4 5 6 8 6 6 6 6 5 5 4 3 4 3 4 7 8 5 4 4 5 5 6 6 5 5 5 4 4 5 4 4 4 3 3 1 1 1 4
Wind_Direction
151 165 191 200 191 182 186 195 205 164 186 184 177 177 202 207 207 135 206 125 139 249 239 236 240 249 256 258 252 242 246 246 245 240 235 243 235 219 223 226 224 225 230 228 211 206 206 208 208 209 207 209 209 212 213 212 213 214 212 210 213 207 206 211 208 208 201 201 207 214 215 215 212 212 214 213 208 210 213 213 215 215 216 197 188 191
178 195 213 199 189 182 185 194 200 83 184 177 171 186 203 204 230 183 202 137 175 236 257 244 260 256 256 260 260 250 240 248 244 242 236 238 243 233 217 224 225 229 226 187 233 227 217 214 209 205 207 208 209 212 211 212 213 213 213 215 214 210 207 213 214 209 207 208 206 205 212 212 211 211 212 214 209 210 208 209 212 214 215 208 190 183
194 210 196 182 182 165 181 195 203 180 180 187 193 191 205 216 266 293 215 191 170 231 262 270 271 264 260 261 262 252 237 242 245 243 245 234 239 244 228 226 231 229 234 216 222 222 217 214 208 206 210 212 216 214 211 212 211 212 215 216 214 213 211 211 214 213 211 209 211 212 214 209 219 220 214 214 214 205 209 207 207 209 215 215 210 199
197 219 186 163 137 154 182 194 187 197 197 187 187 178 212 162 173 233 186 181 185 219 296 306 289 274 267 256 255 255 247 241 237 241 245 238 241 245 244 225 221 229 233 227 212 214 216 209 205 206 211 213 212 214 216 214 212 211 215 215 213 214 213 210 211 211 214 209 210 216 222 219 221 222 215 216 214 206 204 210 206 211 213 210 205 208
199 148 169 145 159 173 178 187 190 192 206 208 206 205 196 155 203 248 107 360 258 239 266 283 283 274 251 250 245 246 235 232 237 238 244 241 236 244 250 244 223 231 228 231 224 214 213 207 206 205 208 206 207 212 216 212 207 209 210 211 211 212 210 210 210 206 209 206 207 209 214 225 226 226 223 218 219 213 210 205 211 216 214 213 210 205
178 156 163 163 172 183 181 187 196 190 202 198 219 214 212 165 186 162 24 336 277 269 180 251 294 273 230 224 239 256 243 228 232 232 237 238 231 225 237 237 227 223 224 232 231 215 208 211 211 208 206 204 209 212 215 212 209 208 208 207 207 210 212 212 213 207 203 207 208 203 209 213 219 225 222 220 220 214 209 208 211 215 218 219 218 217
192 168 172 174 176 183 188 193 191 187 203 195 206 191 182 186 194 166 169 120 258 260 143 254 246 278 183 259 220 233 259 257 241 225 236 236 231 221 223 221 218 215 217 222 234 229 206 212 209 206 205 205 210 215 209 205 210 209 209 207 206 207 210 210 211 206 200 208 210 210 210 214 218 224 228 226 223 218 217 209 213 212 204 213 214 214
149 173 178 182 181 185 190 200 185 186 189 222 128 166 190 191 189 195 198 213 258 19 270 200 251 284 284 249 248 249 259 261 253 244 235 229 230 232 228 222 225 220 216 207 217 222 216 209 204 207 206 205 210 211 199 203 205 205 207 204 204 207 209 208 206 209 203 206 208 210 212 215 220 219 226 221 220 220 218 209 214 212 211 204 207 203
174 169 176 175 184 188 200 199 155 178 192 204 141 158 183 191 201 189 208 219 297 2 276 215 162 277 262 91 183 207 245 247 251 246 240 236 234 233 232 227 216 219 217 212 213 220 211 209 210 210 207 209 210 197 194 201 204 207 209 208 207 208 209 208 205 209 205 206 210 210 212 216 220 224 227 221 215 216 216 222 219 208 208 202 205 206
186 172 176 174 180 199 199 165 157 177 196 139 140 131 146 146 101 179 195 190 228 229 254 183 175 246 277 192 201 188 229 249 245 247 247 238 232 227 234 237 227 219 220 218 221 223 219 211 212 213 215 206 203 204 200 202 203 207 208 208 208 211 210 209 210 211 213 208 209 211 213 216 221 219 226 223 224 221 222 227 222 207 207 201 201 204
93 10 176 169 193 202 171 147 160 179 132 127 124 115 98 77 101 46 71 200 202 241 249 170 174 220 290 252 193 160 215 214 243 253 254 253 246 234 229 233 232 222 221 219 221 225 229 221 216 196 211 219 213 197 198 203 205 201 199 203 207 212 211 208 211 209 213 207 212 215 216 217 221 220 219 216 224 224 219 223 222 213 213 208 202 202
137 137 159 225 49 66 112 94 114 162 137 145 137 127 112 81 66 123 186 208 224 248 121 163 177 183 241 240 184 140 93 199 223 253 258 250 243 238 228 229 232 225 218 219 218 223 228 232 205 187 214 213 211 194 201 209 207 205 204 203 209 212 211 209 207 205 214 213 215 218 219 217 218 216 214 217 218 216 219 219 221 216 210 213 208 204
168 177 148 79 287 137 133 123 143 145 168 169 148 145 152 162 144 205 178 209 215 240 175 194 177 217 233 239 5 235 258 266 215 234 254 262 258 245 239 233 228 225 219 219 215 216 221 220 207 202 214 213 202 192 201 204 203 204 204 204 207 212 208 209 205 203 207 211 215 216 219 220 216 215 217 219 221 217 218 219 220 217 215 213 209 207
141 7 15 119 162 189 152 156 146 167 190 169 165 164 155 160 181 213 200 298 296 191 194 159 326 261 269 290 244 246 247 255 263 254 236 244 253 257 248 251 249 223 235 240 236 232 232 220 213 213 214 212 205 205 202 202 198 200 203 204 207 215 208 206 205 205 206 210 214 215 217 217 214 217 215 216 217 214 216 217 218 218 217 214 214 208
140 181 221 163 197 184 186 167 163 134 159 182 155 178 176 169 177 194 190 205 213 235 135 194 143 244 192 203 25 302 307 298 288 270 265 256 257 259 277 313 276 259 250 242 247 241 241 240 226 216 212 212 207 206 203 200 201 202 207 206 210 216 211 205 205 204 206 210 213 214 213 215 218 216 215 218 215 213 213 215 214 217 217 217 218 216
194 145 138 175 12 164 187 155 132 131 148 185 182 352 195 212 192 231 307 226 142 152 162 193 223 268 225 8 304 267 257 258 247 251 234 243 246 252 260 254 240 235 239 227 228 238 240 237 234 229 224 222 215 208 201 203 200 201 207 208 211 213 210 205 201 204 206 209 211 212 213 215 215 216 215 217 216 215 216 214 212 218 216 218 219 217
177 207 154 148 340 184 177 150 165 150 185 172 177 201 193 23 92 103 68 47 62 349 245 176 274 266 288 277 253 251 257 259 261 253 230 241 246 244 247 245 240 228 225 229 230 234 238 229 218 223 225 219 208 203 206 208 204 206 207 210 217 220 216 211 205 209 208 209 210 213 216 217 216 217 215 217 217 214 215 215 214 219 217 219 220 219
174 146 360 142 137 194 67 163 159 181 102 125 201 197 123 74 8 205 230 120 220 230 249 164 236 261 5 283 89 188 231 236 247 257 260 245 230 244 247 251 242 236 222 228 236 239 241 238 226 215 219 218 210 204 204 209 205 206 209 210 214 217 217 218 215 213 214 211 214 214 217 220 220 218 221 223 222 220 217 214 215 210 211 213 211 195
130 100 189 269 170 145 116 127 180 263 244 180 187 148 157 182 199 207 212 208 193 218 251 216 236 257 227 243 185 169 190 215 225 232 236 244 237 233 249 252 246 242 240 235 237 242 240 228 226 214 213 217 218 212 211 206 200 203 210 214 215 217 214 212 210 209 214 218 216 220 222 222 222 222 224 225 224 223 220 216 205 199 210 219 207 203
172 129 125 1 159 151 159 166 183 192 220 302 171 180 210 306 211 174 208 321 183 239 234 258 145 262 194 232 214 233 219 237 253 241 233 235 240 228 246 259 253 246 239 236 237 236 241 240 227 220 218 211 209 210 208 201 196 207 210 209 218 224 217 213 212 207 214 209 213 218 221 223 223 222 223 219 213 213 207 208 209 211 201 210 199 202
167 122 164 146 27 146 182 198 191 181 178 171 183 192 192 211 337 273 359 202 203 218 222 267 264 243 212 179 189 221 226 234 246 257 246 237 239 210 238 254 258 255 250 250 260 260 255 257 240 229 228 233 226 219 203 198 201 201 197 206 209 212 214 215 214 209 211 205 208 216 221 221 219 220 220 220 214 213 221 218 210 211 210 214 211 189
141 194 156 138 172 196 203 195 217 189 178 190 188 194 189 172 157 177 213 165 214 200 217 196 251 272 175 161 196 220 230 233 232 233 251 251 223 201 228 233 232 252 260 270 270 267 265 258 254 232 203 209 226 220 206 200 192 194 197 198 197 205 210 208 206 204 203 203 205 214 220 220 218 218 220 220 220 216 218 217 209 208 208 213 214 207
146 125 120 169 181 187 164 43 186 256 210 201 204 213 198 191 195 201 215 198 176 241 30 289 340 280 125 166 190 208 216 217 203 191 255 264 267 254 234 243 236 226 251 267 269 265 255 253 258 282 278 248 229 226 203 191 194 193 194 192 200 201 209 202 203 197 199 201 199 207 214 217 214 213 215 216 216 215 214 216 214 208 213 214 209 206
87 116 108 63 57 25 48 320 7 188 164 214 239 237 196 198 196 208 238 94 186 158 233 237 245 267 126 167 221 247 318 319 329 219 244 261 265 257 248 248 242 225 233 245 260 265 264 272 300 279 233 217 233 229 213 201 190 188 187 194 193 206 204 189 199 198 201 204 205 206 212 214 210 208 214 215 215 217 214 215 213 197 207 203 189 188
159 214 136 130 123 168 5 88 190 258 207 212 208 205 215 215 176 65 94 44 225 197 209 196 239 259 161 61 268 246 247 264 264 222 210 253 261 248 252 252 249 259 273 264 259 258 240 221 219 225 227 225 226 226 215 204 194 183 190 183 192 200 196 191 193 196 201 202 200 209 214 212 209 209 211 216 215 217 205 204 197 189 197 192 194 195
208 155 165 165 165 169 181 192 191 191 200 194 212 188 204 208 194 148 209 174 231 215 192 214 240 243 95 100 192 217 226 263 258 249 224 231 258 256 246 254 261 247 264 278 275 264 247 241 201 205 205 215 225 219 218 216 207 200 193 191 186 193 185 190 183 194 197 199 201 209 213 212 210 212 212 212 216 213 205 198 195 190 199 196 200 195
179 177 195 181 183 191 193 197 192 133 107 170 188 198 195 200 191 195 200 212 220 214 184 219 227 54 167 180 192 210 211 232 243 169 194 218 232 233 249 260 265 265 265 265 264 277 299 252 220 211 182 174 181 200 210 206 202 205 207 201 197 198 188 186 187 195 193 201 207 213 214 211 210 208 209 208 207 197 193 196 196 192 199 198 202 197
90 185 203 197 213 217 209 183 156 161 175 189 192 196 190 188 195 197 200 212 211 117 237 233 228 232 220 192 210 217 210 216 244 207 173 247 273 257 235 281 275 265 253 240 241 237 236 253 250 190 174 163 168 169 191 201 207 205 204 206 202 201 198 192 191 193 196 198 207 212 213 212 206 202 201 195 195 198 198 196 199 203 200 194 203 205
176 198 202 198 216 218 161 159 171 177 192 191 187 181 190 188 192 202 215 226 170 206 223 241 217 228 228 198 216 221 207 204 224 224 170 192 275 294 295 293 284 264 256 242 235 222 219 221 202 181 152 144 149 176 180 188 201 207 212 211 199 196 200 191 185 191 194 198 207 212 209 205 197 190 187 184 185 191 192 193 196 191 195 196 206 204
175 227 197 197 213 189 279 177 177 182 191 183 178 189 186 183 195 204 221 218 209 226 232 197 157 227 219 208 216 231 228 226 276 187 184 197 216 244 265 271 284 285 235 236 240 234 224 219 170 150 132 157 187 186 187 191 194 196 199 202 201 201 199 182 193 193 195 201 208 206 204 196 192 187 184 183 187 191 187 190 189 188 191 197 198 200
190 211 181 190 208 199 198 280 193 188 184 191 185 186 184 188 200 211 219 217 214 240 248 250 260 264 237 216 208 223 181 111 258 258 255 229 210 220 233 249 273 278 256 230 229 236 231 247 222 154 169 193 199 202 195 195 186 174 185 196 196 200 197 192 196 201 203 210 208 205 191 188 192 187 192 189 188 182 183 183 178 182 187 190 190 192
201 220 169 173 197 206 184 189 202 195 192 193 185 179 182 189 204 211 219 213 205 223 234 234 256 256 231 154 246 275 282 271 263 262 258 246 239 258 264 250 228 254 268 252 217 229 236 222 200 167 195 204 211 211 204 195 188 174 194 182 195 196 180 189 197 198 204 204 188 179 188 190 179 184 187 183 185 176 178 164 167 178 184 180 182 183
195 178 179 176 200 213 178 173 149 151 162 199 198 189 191 197 202 208 215 212 208 223 227 216 233 238 113 154 185 211 240 253 256 259 259 251 238 223 228 233 227 219 238 242 250 231 225 222 186 174 198 194 208 211 220 194 169 198 186 179 183 170 169 184 190 197 202 194 177 185 182 175 176 185 181 184 176 169 160 169 175 178 174 188 183 155
188 189 193 174 204 189 139 144 148 152 197 210 204 200 190 191 199 203 211 210 212 213 218 217 225 88 156 169 197 199 213 218 227 237 228 236 226 214 229 233 232 230 239 240 231 239 245 189 171 209 213 215 201 194 160 189 212 229 143 140 149 169 178 181 193 198 189 175 189 179 179 172 175 179 177 165 163 158 166 170 181 176 167 141 137 164
187 190 199 177 200 172 146 141 175 204 213 224 219 201 199 201 198 205 212 211 216 217 227 235 237 228 166 175 197 210 223 236 229 235 240 228 237 226 209 212 223 226 226 225 230 236 237 216 182 216 208 218 207 181 161 182 194 164 160 164 167 177 176 191 184 193 187 172 173 166 171 172 170 173 164 167 162 160 165 170 155 156 162 167 173 173
198 185 178 191 139 77 161 174 191 221 217 348 116 164 191 208 214 213 234 230 219 215 212 222 231 228 155 185 192 204 214 226 247 253 233 221 206 209 205 222 219 214 218 215 218 231 228 209 188 200 225 168 169 180 171 167 163 168 178 169 161 166 181 180 187 190 172 178 175 182 178 170 172 169 165 161 159 164 171 174 176 174 169 163 171 175
246 211 197 179 189 171 180 178 205 52 37 231 81 175 169 195 201 195 209 226 221 218 216 230 234 224 188 174 171 171 273 336 269 260 240 226 220 208 224 229 220 215 214 226 218 225 217 173 192 207 169 170 186 179 189 153 157 167 156 162 161 161 169 174 193 195 189 178 180 181 174 173 170 171 168 168 170 182 182 178 179 167 160 157 169 169
276 221 192 174 225 178 173 186 210 239 237 224 221 200 196 205 186 200 218 265 194 208 210 218 229 221 215 148 164 141 114 235 245 239 243 226 180 217 229 230 235 235 232 238 233 218 185 185 169 94 162 145 188 209 120 145 159 159 162 158 153 161 167 184 202 198 198 195 182 174 166 173 172 173 176 175 184 184 187 183 176 177 177 175 171 184
356 284 248 214 171 169 194 190 191 205 227 224 221 172 119 130 131 115 185 258 235 198 204 209 224 219 195 160 164 143 182 225 240 237 239 179 195 211 224 213 220 226 230 231 216 207 184 190 164 147 137 145 187 176 149 153 159 168 174 163 164 169 178 197 200 193 193 187 175 174 173 178 178 176 174 180 188 181 178 181 183 178 177 187 177 181
168 189 129 195 189 210 184 192 205 207 234 225 129 154 136 125 122 109 190 250 248 204 203 200 218 199 179 168 160 179 197 225 239 235 222 221 215 218 222 227 221 226 229 166 191 195 186 146 132 158 172 186 185 150 156 156 170 188 182 167 163 175 193 196 196 190 187 179 179 177 174 177 179 178 177 183 180 179 182 173 160 163 176 175 176 170
169 171 199 201 190 204 209 219 320 280 256 184 154 135 145 130 132 175 197 229 245 182 202 202 213 199 192 181 172 197 209 217 231 234 211 227 239 243 235 238 218 185 189 179 191 158 151 184 189 185 191 180 147 149 154 160 163 185 189 166 171 201 189 164 168 176 183 183 178 178 180 175 178 176 179 175 173 172 165 173 170 159 162 158 163 155
177 161 188 190 203 198 203 211 230 268 244 116 182 144 139 140 172 205 222 201 116 164 176 196 210 196 186 183 188 204 215 218 231 232 174 208 223 238 206 193 156 130 80 160 174 174 171 170 202 205 176 128 143 150 152 155 173 186 179 178 202 186 146 157 158 153 167 167 167 174 173 173 168 168 168 161 153 155 162 166 155 159 157 162 158 153
176 172 179 189 173 40 181 219 233 252 221 157 154 157 164 179 208 200 88 68 130 167 181 195 197 193 185 194 198 206 218 220 224 217 149 173 165 192 182 167 181 185 178 152 153 203 173 171 195 205 180 146 162 159 161 161 172 180 185 195 188 149 151 136 134 140 153 153 142 169 171 168 165 158 151 153 156 154 153 148 148 148 151 149 151 157
160 187 187 200 186 167 184 197 209 221 11 139 148 182 199 191 52 138 140 122 257 151 177 195 204 191 187 195 202 214 221 223 227 208 195 191 163 119 117 156 170 156 161 186 164 167 178 185 170 158 132 177 182 178 170 171 169 179 182 188 140 128 113 119 134 146 144 153 155 116 124 145 146 141 147 152 151 152 150 155 155 154 166 166 166 163
178 196 175 186 190 192 193 206 199 117 157 175 176 195 166 216 162 275 196 155 162 225 191 184 184 181 192 198 204 208 220 223 226 212 207 217 202 179 178 190 182 185 180 174 173 164 174 175 172 155 162 182 180 177 181 191 170 172 180 148 128 138 140 145 143 142 151 150 151 152 152 144 144 144 144 147 155 153 158 157 157 164 170 171 176 176
194 201 166 163 200 223 255 303 127 203 194 195 197 185 182 204 235 99 240 170 218 175 177 170 189 179 186 192 190 208 216 221 221 225 221 222 196 200 186 166 175 135 136 141 149 174 175 150 129 150 152 163 176 180 190 209 185 174 170 133 145 146 139 138 141 145 146 142 139 140 138 133 118 125 131 145 165 167 167 166 171 175 172 179 185 186
183 182 171 203 172 179 239 228 220 212 189 210 218 241 303 229 204 187 218 227 202 173 187 200 166 177 180 177 189 196 210 216 217 226 219 195 204 201 194 193 185 176 172 184 172 151 146 152 157 167 161 162 180 182 184 188 189 135 132 147 144 147 141 141 138 134 135 132 128 124 136 139 150 150 145 154 156 160 166 173 180 181 179 185 187 185
220 188 194 201 162 184 226 217 214 177 189 205 201 215 225 218 194 213 249 289 268 214 229 142 136 131 141 174 194 197 213 204 203 221 197 207 210 195 192 187 165 164 190 105 139 164 149 166 168 167 168 166 168 176 172 172 144 141 141 141 145 146 137 129 140 142 138 132 132 137 146 145 131 140 159 162 166 166 167 182 191 194 193 194 193 189
161 159 210 171 192 211 238 22 164 128 215 220 215 216 206 196 183 201 220 210 221 178 168 158 230 164 169 192 191 195 195 200 205 204 201 202 200 202 196 173 165 171 155 156 170 180 177 174 171 171 168 164 163 163 155 136 120 131 142 142 148 150 132 122 120 123 125 130 134 136 144 146 156 162 160 161 167 178 184 192 197 200 215 220 209 198
123 186 170 173 209 220 218 215 143 171 220 216 211 209 211 208 181 195 188 215 207 189 171 153 152 18 271 349 180 176 193 199 192 181 202 200 191 159 145 155 157 156 162 157 145 171 158 163 162 161 159 144 135 144 130 106 90 101 116 140 142 140 130 125 122 124 134 140 146 141 151 149 151 157 157 161 171 176 165 37 49 344 226 214 202 251
180 179 173 193 186 221 223 219 185 206 215 206 196 184 188 196 190 195 200 202 198 207 178 152 134 129 201 220 232 193 204 194 181 176 204 185 129 129 148 151 158 161 165 158 150 163 164 141 141 153 137 141 149 142 132 120 128 125 114 124 105 101 115 118 121 115 127 149 156 160 153 153 153 161 161 166 173 176 184 202 202 180 211 308 213 219